TimeEST,TemperatureF,Dew PointF,Humidity,Sea Level PressureIn,VisibilityMPH,Wind Direction,Wind SpeedMPH,Gust SpeedMPH,PrecipitationIn,Events,Conditions,WindDirDegrees,DateUTC
12:16 AM,32.0,30.0,92,30.31,10.0,SSE,4.6,-,N/A,,Clear,150,2012-12-07 05:16:00
12:37 AM,31.6,29.1,90,30.30,10.0,Calm,Calm,-,N/A,,Clear,0,2012-12-07 05:37:00
12:59 AM,32.7,30.6,92,30.29,10.0,SSE,4.6,-,N/A,,Scattered Clouds,150,2012-12-07 05:59:00
1:20 AM,32.7,30.2,90,30.28,10.0,SE,4.6,-,N/A,,Scattered Clouds,140,2012-12-07 06:20:00
1:42 AM,32.2,30.2,92,30.28,10.0,Calm,Calm,-,N/A,,Clear,0,2012-12-07 06:42:00
2:03 AM,32.5,30.6,92,30.27,10.0,SSE,3.5,-,N/A,,Clear,150,2012-12-07 07:03:00
2:24 AM,32.0,30.6,94,30.27,10.0,Calm,Calm,-,N/A,,Mostly Cloudy,0,2012-12-07 07:24:00
2:45 AM,33.1,31.6,94,30.27,10.0,Calm,Calm,-,N/A,,Overcast,0,2012-12-07 07:45:00
3:07 AM,33.8,31.6,92,30.26,10.0,Calm,Calm,-,N/A,,Overcast,0,2012-12-07 08:07:00
3:28 AM,34.0,32.0,92,30.25,10.0,Calm,Calm,-,N/A,,Overcast,0,2012-12-07 08:28:00
3:49 AM,34.3,32.0,91,30.24,10.0,Calm,Calm,-,N/A,,Overcast,0,2012-12-07 08:49:00
4:11 AM,34.7,32.0,90,30.24,10.0,Calm,Calm,-,N/A,,Overcast,0,2012-12-07 09:11:00
4:31 AM,35.1,32.0,89,30.24,10.0,Calm,Calm,-,N/A,,Overcast,0,2012-12-07 09:31:00
4:53 AM,35.1,32.0,89,30.24,10.0,Calm,Calm,-,N/A,,Overcast,0,2012-12-07 09:53:00
5:15 AM,35.4,32.0,87,30.23,10.0,Calm,Calm,-,N/A,,Overcast,0,2012-12-07 10:15:00
5:36 AM,35.6,32.2,87,30.23,10.0,Calm,Calm,-,N/A,,Overcast,0,2012-12-07 10:36:00
5:53 AM,35.6,32.0,87,30.23,10.0,SE,3.5,-,N/A,,Overcast,130,2012-12-07 10:53:00
5:57 AM,35.8,32.5,88,30.23,10.0,SSE,3.5,-,N/A,,Overcast,150,2012-12-07 10:57:00
6:18 AM,36.5,33.1,87,30.24,10.0,Calm,Calm,-,N/A,,Overcast,0,2012-12-07 11:18:00
6:39 AM,36.7,34.0,90,30.24,10.0,Calm,Calm,-,N/A,,Overcast,0,2012-12-07 11:39:00
6:53 AM,37.4,35.6,93,30.24,8.0,Calm,Calm,-,N/A,Rain,Light Rain,0,2012-12-07 11:53:00
7:53 AM,39.2,35.6,87,30.23,10.0,Calm,Calm,-,N/A,,Overcast,0,2012-12-07 12:53:00
8:53 AM,41.0,39.2,93,30.22,10.0,South,4.6,-,N/A,,Overcast,180,2012-12-07 13:53:00
9:53 AM,41.0,41.0,100,30.23,10.0,South,4.6,-,N/A,Rain,Light Rain,190,2012-12-07 14:53:00
10:53 AM,44.6,41.0,87,30.21,10.0,SSW,5.8,-,N/A,,Overcast,210,2012-12-07 15:53:00
11:55 AM,46.4,44.6,93,30.17,10.0,South,5.8,-,N/A,,Overcast,180,2012-12-07 16:55:00
12:55 PM,46.4,44.6,93,30.13,10.0,South,6.9,-,N/A,,Overcast,170,2012-12-07 17:55:00
1:47 PM,48.2,46.4,93,30.12,10.0,SSW,4.6,-,N/A,,Overcast,210,2012-12-07 18:47:00
2:55 PM,50.0,46.4,87,30.11,10.0,South,5.8,-,N/A,,Overcast,190,2012-12-07 19:55:00
3:50 PM,50.0,46.4,87,30.11,10.0,South,3.5,-,N/A,,Overcast,190,2012-12-07 20:50:00
4:50 PM,50.0,46.4,87,30.10,10.0,South,4.6,-,N/A,,Overcast,180,2012-12-07 21:50:00
5:50 PM,48.2,46.4,93,30.10,10.0,SSW,3.5,-,N/A,Rain,Rain,200,2012-12-07 22:50:00
6:51 PM,48.2,48.2,100,30.10,10.0,Calm,Calm,-,N/A,Rain,Light Rain,0,2012-12-07 23:51:00
7:50 PM,48.2,48.2,100,30.08,10.0,Calm,Calm,-,N/A,Rain,Rain,0,2012-12-08 00:50:00
8:50 PM,46.4,46.4,100,30.08,5.0,Calm,Calm,-,N/A,Rain,Heavy Rain,0,2012-12-08 01:50:00
9:53 PM,47.5,47.5,100,30.05,3.0,ESE,3.5,-,0.10,Rain,Heavy Rain,120,2012-12-08 02:53:00
10:14 PM,48.2,48.2,100,30.04,3.0,Calm,Calm,-,N/A,Rain,Rain,0,2012-12-08 03:14:00
10:36 PM,47.7,47.7,100,30.03,2.5,Calm,Calm,-,0.17,Rain,Heavy Rain,0,2012-12-08 03:36:00
10:57 PM,47.7,47.7,100,30.03,2.5,Calm,Calm,-,0.32,Rain,Rain,0,2012-12-08 03:57:00
11:18 PM,47.7,47.7,100,30.03,2.0,NW,8.1,-,0.07,Rain,Heavy Rain,320,2012-12-08 04:18:00
11:40 PM,47.8,47.8,100,30.02,2.5,Calm,Calm,-,0.19,Rain,Heavy Rain,0,2012-12-08 04:40:00